Regional Weather Roundup
Issued by NWS Newport/Morehead, NC

Current Version | Previous Version | Text Only | Print | Product List | Glossary On
Versions: 1 2 3 4 5 6 7 8 9 10 11 12 13 14 15 16 17 18 19 20 21 22 23 24 25 26 27 28 29 30 31 32 33 34 35 36 37 38 39 40 41 42 43 44 45 46 47 48 49 50
000
ASUS42 KMHX 230522
RWRMHX
WEATHER ROUNDUP FOR EASTERN NORTH CAROLINA
NATIONAL WEATHER SERVICE NEWPORT/MOREHEAD CITY NC
100 AM EDT WED APR 23 2014

NOTE: "FAIR" INDICATES FEW OR NO CLOUDS BELOW 12,000 FEET
WITH NO SIGNIFICANT WEATHER AND/OR OBSTRUCTIONS TO VISIBILITY

NCZ015>017-031-032-045>047-102-103-230600-
NORTH COAST

CITY           SKY/WX    TMP DP  RH WIND       PRES   REMARKS
EDENTON        CLOUDY    65  56  73 SW3       29.65S
ELIZABETH CITY CLOUDY    63  55  75 SW7       29.63F
KITTY HAWK     CLOUDY    66  53  62 SW5       29.62F
MANTEO         CLOUDY    62  53  72 W3        29.64S

$$

NCZ045>047-081-094-103-104-230600-
CENTRAL COAST

CITY           SKY/WX    TMP DP  RH WIND       PRES   REMARKS
FRISCO         CLOUDY    59 N/A N/A W8        29.66F
SWANQUARTER      N/A     64 N/A N/A SW3       29.62S

$$

NCZ095-097-098-100-101-230600-
SOUTHERN COAST

CITY           SKY/WX    TMP DP  RH WIND       PRES   REMARKS
BEAUFORT       CLOUDY    62  59  90 SW7       29.68F
CEDAR ISLAND     N/A     64 N/A N/A SW9       29.71S
JACKSONVILLE   CLOUDY    65  60  84 W8        29.70S
NEWPORT          N/A     64  57  77 SW2         N/A
PINEY ISLAND   CLOUDY    68  58  70 W9        29.67S
WILMINGTON     CLOUDY    67  57  70 W7        29.73S


$$

NCZ011>013-027>030-043-044-078>080-089-090>093-098-230600-
COASTAL PLAIN

CITY           SKY/WX    TMP DP  RH WIND       PRES   REMARKS
AHOSKIE        MOCLDY    62  54  74 CALM      29.66S
CLINTON        PTCLDY    63  59  87 SW5       29.72S
ELIZABETHTOWN  MOCLDY    63  59  86 SW3       29.73F
GOLDSBORO      CLOUDY    65  58  78 W9        29.68S
GREENVILLE     CLOUDY    66  55  68 W5        29.71S
HAVELOCK       CLOUDY    66  56  70 W7        29.69F
KENANSVILLE    MOCLDY    64  55  75 SW8       29.72S
KINSTON        MOCLDY    64  55  73 SW5       29.69S
NEW BERN       CLOUDY    68  56  65 SW3       29.69S
RICHLANDS      CLOUDY    64  63  94 SW8       29.71S
ROANOKE RAPIDS NOT AVBL
ROCKY MOUNT    PTCLDY    63  54  72 SW5       29.68S
WASHINGTON     CLOUDY    68  58  69 W6        29.67F
WHITEVILLE     CLOUDY    64  58  82 CALM      29.74S

$$

AMZ130-135-150-152-154-156-158-170-250-252-270-ANZ085-086-088-633-658-670-230600-
MARINE OBSERVATIONS

STATION/POSITION TIME  TEMP    WIND        PRES    WAVE   SWELL
                       AIR SEA DIR/SP/G            HT/PER HT/PER
                 (UTC) (F)     (DEG/KT/KT) (MB)    (FT/S) (FT/S)
CHESAPEAKE LIGHT 0500   67     240/ 12/ 13 1003.2
BUOY 44014       0500   53 49  220/  6/  8 1002.1    4/ 9   5/ 9
DUCK             0500   65 48  260/ 11/ 14 1002.4
2E DUCK          0500      50                N/A     3/ 8   2/11
OREGON INLET     0500   62 60  230/ 10/ 12 1003.7
BUOY 44095       0500      51                N/A     4/ 8   2/11
HATTERAS CG      0500   61 57  240/  5/  7 1004.3
DIAMOND BUOY     0500   71 76  250/ 23/ 27 1003.6    7/ 6   3/ 9
CAPE LOOKOUT     0500   63     240/ 11/ 14 1005.2
BEAUFORT LAB     0500   62 61  260/  2/  6 1004.5
30 SE NEW RIVER  0500   68 69  250/ 17/ 19 1005.9    5/ 5   2/ 9
5 SE WRIGHTSVILL 0500   62 60  240/  6/  8 1006.4
FRYING PAN BUOY  0500   67 67  280/ 16/ 19 1007.0    5/ 6   2/ 9
BUOY 41001       NOT AVBL
BUOY 41002       NOT AVBL
BUOY 41004       0500   68 70  280/ 12/ 16 1008.4    3/ 8   2/ 8

$$



USA.gov is the U.S. government's official web portal to all federal, state and local government web resources and services.